Wetbulb
48.81 49.64 50.02 50.56 51.88 52.32 52.72 53.32 53.73 52.81 53.79 53.83 54.99 55.14 54.98 53.55 52.38 50.66 49.40 51.61 51.83 51.59 52.31 52.65 51.98 50.50 50.10 48.23 49.41 50.91 51.74 50.22 49.62 47.03 47.65 48.07 47.31 47.29 47.65 48.50 49.45 49.54 50.71
47.07 46.74 46.58 47.97 49.07 49.26 49.80 50.70 51.35 51.26 52.01 52.33 52.88 53.25 53.58 53.51 51.79 49.09 48.71 50.89 50.76 50.93 51.31 50.20 49.44 49.57 44.93 45.58 47.38 50.27 48.87 48.06 47.14 47.00 45.61 45.26 45.36 45.87 45.72 45.65 46.62 48.15 49.04
43.87 43.45 44.20 45.08 46.11 46.56 48.31 49.27 50.23 50.39 51.03 50.91 52.44 51.59 51.84 50.96 49.95 49.60 50.13 50.30 50.51 50.77 49.99 49.00 48.65 47.94 45.68 44.23 47.48 46.62 46.16 45.58 44.99 45.24 43.29 44.92 44.49 45.16 44.52 44.68 44.74 45.01 47.09
43.34 43.00 42.29 42.94 44.35 45.73 47.43 48.91 49.13 49.47 49.66 50.80 51.60 51.67 51.59 50.62 49.98 50.09 49.91 48.80 48.67 49.84 47.66 48.70 48.20 47.18 43.90 44.73 44.71 42.02 44.03 44.12 43.86 43.25 42.86 42.84 43.38 44.10 43.54 42.05 41.73 43.64 43.78
41.74 41.90 41.48 43.06 43.52 44.45 45.18 46.22 48.34 50.77 51.67 52.14 51.75 50.75 50.28 49.39 49.31 47.83 48.54 47.85 47.04 47.49 48.11 47.86 47.73 48.24 48.79 47.45 43.43 40.78 42.15 41.60 41.73 41.01 40.97 41.37 41.29 41.66 41.46 42.70 41.74 42.47 43.63
41.12 40.96 42.89 42.61 43.22 44.30 45.25 47.53 48.61 48.87 48.90 48.66 48.37 48.10 46.80 46.97 46.99 48.49 49.04 46.24 47.76 48.62 46.88 46.98 47.02 47.52 47.44 47.40 47.00 46.57 42.18 40.69 40.89 40.11 40.68 40.15 41.09 41.80 41.54 39.52 38.55 37.62 37.05
40.52 41.24 42.10 42.19 42.78 43.57 46.41 46.58 45.80 45.33 45.31 45.16 43.73 45.04 44.46 44.86 46.64 46.37 47.81 46.19 50.07 48.01 47.29 46.41 46.68 46.86 45.85 45.21 45.10 45.52 45.94 45.80 44.33 39.49 40.74 41.57 41.54 43.01 42.78 43.10 42.25 40.77 39.59
40.40 40.58 42.05 42.48 43.16 44.06 44.09 44.07 44.58 45.80 45.06 43.41 42.66 43.52 44.07 45.94 45.65 45.05 46.57 48.37 47.29 47.67 48.65 49.03 46.61 44.87 44.18 44.64 42.86 41.43 40.79 40.69 41.80 43.47 39.90 39.33 40.16 42.26 43.16 43.36 43.48 42.21 41.68
40.12 40.80 41.48 42.57 42.49 43.51 43.34 43.41 41.99 41.89 42.98 45.75 45.68 46.24 45.37 44.11 43.66 44.99 45.46 45.12 44.15 43.85 44.64 45.96 46.57 45.06 44.05 43.81 43.82 41.85 40.95 41.29 44.98 45.10 44.31 43.49 42.88 43.78 43.24 39.91 38.12 40.35 39.16
40.54 41.33 41.82 43.34 43.24 42.91 43.74 43.16 44.03 44.96 44.45 43.92 43.08 43.33 43.84 42.43 42.50 42.97 44.60 44.61 43.37 43.73 44.54 44.65 44.01 42.30 41.45 43.06 42.71 42.56 40.89 41.60 42.30 43.21 42.97 43.24 43.35 43.96 45.47 42.74 41.29 38.84 38.85
41.89 42.03 42.64 42.41 42.14 42.41 41.51 44.14 44.11 43.17 42.71 41.82 41.44 42.05 42.67 43.06 42.52 42.16 42.94 44.02 43.04 42.79 43.00 43.27 43.91 41.73 40.13 39.78 40.62 40.57 40.56 40.89 42.35 44.39 43.33 41.02 41.85 42.55 43.20 44.53 43.64 41.88 39.90
42.46 42.27 42.36 43.37 44.59 45.06 43.67 42.83 42.50 41.94 40.90 40.46 40.60 40.82 41.76 42.79 42.86 41.77 41.55 41.76 43.37 42.09 41.60 41.44 40.31 39.73 39.00 39.67 40.51 39.65 39.88 40.92 39.57 43.20 42.31 41.22 40.48 41.06 41.76 44.56 44.69 44.08 43.74
41.64 41.27 41.58 42.66 42.93 42.91 41.91 41.45 41.28 41.24 40.26 39.57 39.67 39.36 40.39 41.44 41.69 41.81 40.91 40.44 42.59 40.46 40.28 40.47 40.66 39.86 40.66 40.72 40.39 40.33 40.86 40.09 40.04 41.65 40.96 41.13 40.59 39.29 41.42 44.35 45.37 44.82 44.51
40.45 40.21 40.85 40.60 40.56 41.81 41.81 41.29 40.23 39.26 39.13 39.23 39.75 39.56 39.88 40.47 40.62 41.27 41.29 40.45 41.44 42.03 42.68 41.95 42.61 41.27 40.51 40.39 40.30 40.31 40.68 39.79 39.46 42.06 41.58 42.01 41.38 38.75 41.38 42.86 42.31 42.93 41.43
40.19 40.11 40.00 40.18 39.82 39.54 39.92 40.11 40.47 40.83 40.45 38.91 38.35 38.19 38.43 38.14 39.67 38.19 37.58 38.63 38.83 40.05 41.46 38.18 37.88 37.11 37.21 37.16 37.75 38.77 39.75 40.16 39.49 41.31 41.24 40.60 38.88 38.53 40.68 42.16 42.12 42.19 40.30
39.87 39.96 39.96 39.70 39.62 39.69 39.46 39.62 38.96 39.20 39.44 39.36 39.56 39.40 39.10 38.03 37.43 37.47 37.16 37.01 37.21 38.18 36.36 34.83 34.02 34.22 33.79 33.63 34.05 35.47 37.14 38.93 37.87 38.97 38.47 38.89 38.04 39.22 40.44 41.41 41.83 41.02 39.90
38.66 38.68 36.58 36.31 35.40 35.49 34.65 33.99 29.64 35.48 38.01 37.37 36.70 36.87 36.48 36.24 36.79 37.62 37.47 37.35 36.50 37.41 34.73 33.66 33.12 33.68 33.71 34.43 33.65 34.32 34.68 36.10 37.32 37.40 37.02 38.28 41.53 40.52 40.59 40.18 40.41 40.36 39.40
37.69 39.78 35.51 35.73 35.42 34.26 34.05 33.70 33.00 32.01 31.16 32.30 35.59 36.00 36.78 37.06 36.95 36.76 36.89 37.15 35.00 34.84 33.38 33.17 33.49 33.72 34.33 35.07 35.74 36.48 37.24 37.53 37.29 37.14 39.38 40.87 41.40 40.86 39.82 39.25 39.31 38.92 38.90
38.75 37.61 37.15 34.95 33.88 34.52 33.34 33.06 32.96 32.97 32.70 32.30 34.14 36.99 37.04 37.31 37.21 37.00 36.64 34.05 32.56 31.73 32.01 32.51 32.95 33.66 34.12 34.08 34.09 34.80 35.91 37.18 37.67 38.75 40.13 40.19 40.42 40.59 39.52 39.22 39.00 37.13 37.25
38.22 39.66 35.67 34.41 34.36 34.41 34.22 33.94 33.26 32.52 32.20 32.35 33.28 32.49 35.89 37.05 35.11 34.78 35.23 34.50 32.84 31.99 31.40 31.92 32.34 32.32 31.69 31.34 31.21 31.67 34.46 36.77 37.30 38.95 39.51 40.15 39.99 39.98 38.84 38.66 38.41 37.93 38.37
37.16 36.62 37.39 35.73 35.16 34.69 33.73 32.89 32.95 34.59 33.72 32.56 32.52 33.10 32.20 34.99 33.29 32.90 33.27 33.08 32.31 31.89 30.95 30.29 30.22 30.66 30.69 31.06 29.77 29.60 29.93 31.15 32.51 34.78 38.96 39.74 39.88 38.97 39.09 38.58 38.20 38.28 38.21
37.03 35.82 35.49 34.94 34.85 34.98 34.18 33.89 33.66 33.80 33.66 33.79 33.67 35.11 33.15 34.39 33.87 33.09 32.46 31.90 31.46 31.31 31.40 30.96 30.69 30.11 30.07 29.73 29.43 28.77 28.27 28.66 30.38 31.66 37.60 39.91 40.00 39.74 38.89 38.12 37.79 37.79 37.98
38.71 36.26 36.28 35.28 35.73 35.81 35.55 34.90 34.54 34.53 34.55 34.74 34.93 35.31 35.05 33.54 33.18 32.94 33.26 32.28 31.42 31.21 31.06 31.09 30.41 30.23 30.89 30.90 30.58 29.26 28.63 28.36 29.08 30.61 35.68 38.27 39.30 39.05 38.68 37.63 37.30 37.24 37.68
37.40 37.73 36.79 35.65 35.73 34.84 34.56 34.62 34.70 34.55 35.52 35.43 35.41 34.96 34.10 33.88 33.49 33.51 32.86 32.90 32.32 31.57 31.19 30.57 30.59 30.80 31.59 31.83 32.22 31.50 30.33 29.85 31.12 31.46 36.59 36.29 35.47 38.10 38.68 37.95 37.41 37.48 37.73
37.26 37.53 36.99 36.35 36.21 35.29 35.13 35.13 35.17 35.28 35.85 35.89 35.51 35.07 34.51 34.60 33.74 33.94 32.79 31.99 31.51 30.94 31.06 31.03 30.68 31.42 31.45 31.36 31.43 31.31 31.02 31.18 32.18 30.99 34.56 37.02 36.31 37.50 38.94 38.25 37.84 37.34 37.57
39.24 38.68 37.51 37.02 36.33 35.91 35.48 35.29 35.06 35.54 35.81 36.19 35.66 35.20 35.60 35.03 34.69 34.17 33.65 33.04 32.12 31.74 31.34 30.52 31.03 31.08 31.44 31.36 31.14 30.57 30.50 30.50 31.06 31.39 33.71 36.84 35.72 36.45 38.68 38.43 38.16 37.26 37.54
MSLP
1018.42 1018.16 1017.81 1017.34 1016.86 1016.32 1015.96 1015.67 1015.32 1015.06 1014.81 1014.46 1014.35 1014.46 1014.27 1014.25 1014.67 1014.61 1014.49 1014.34 1014.43 1014.26 1013.87 1013.99 1014.42 1013.81 1013.40 1012.84 1012.37 1011.88 1011.41 1011.36 1011.18 1011.27 1011.34 1011.32 1011.25 1011.01 1010.71 1010.37 1010.13 1009.85 1009.47
1018.60 1018.23 1017.84 1017.29 1016.85 1016.54 1016.15 1015.67 1015.32 1014.95 1014.61 1014.39 1014.20 1014.09 1014.09 1014.14 1014.02 1013.95 1014.22 1014.35 1014.37 1014.02 1013.68 1013.49 1013.86 1013.58 1013.20 1012.64 1012.20 1011.85 1011.60 1011.45 1011.39 1011.23 1011.52 1011.66 1011.61 1011.45 1011.25 1010.97 1010.68 1010.24 1009.87
1018.13 1017.94 1017.68 1017.31 1016.82 1016.40 1015.95 1015.51 1015.06 1014.72 1014.50 1014.27 1013.92 1013.87 1013.77 1013.72 1013.75 1013.84 1013.89 1014.01 1013.85 1013.77 1013.39 1013.11 1013.49 1013.43 1012.88 1012.39 1012.25 1012.11 1011.93 1011.75 1011.57 1011.44 1011.81 1011.97 1011.94 1011.93 1011.64 1011.40 1011.14 1010.77 1010.35
1018.12 1017.72 1017.42 1017.07 1016.67 1016.28 1015.86 1015.34 1014.76 1014.27 1014.08 1013.91 1013.61 1013.49 1013.46 1013.64 1013.77 1013.49 1013.36 1013.41 1013.57 1013.48 1013.23 1013.01 1013.52 1013.30 1012.69 1012.43 1012.75 1012.52 1012.28 1011.97 1011.98 1012.04 1012.22 1012.26 1012.20 1012.14 1012.07 1011.91 1011.52 1011.05 1010.74
1018.02 1017.50 1017.08 1016.62 1016.21 1015.83 1015.44 1014.87 1014.33 1013.87 1013.40 1013.64 1013.52 1013.88 1013.61 1013.43 1013.56 1013.28 1013.00 1013.10 1013.25 1013.19 1013.21 1013.22 1013.58 1013.27 1012.36 1012.88 1013.09 1012.78 1012.48 1012.42 1012.48 1012.64 1012.62 1012.63 1012.59 1012.41 1012.40 1012.21 1011.83 1011.34 1010.92
1017.78 1017.30 1016.70 1016.28 1015.82 1015.32 1014.96 1014.36 1013.86 1013.60 1013.71 1013.72 1013.65 1013.47 1013.28 1013.21 1013.05 1012.94 1012.87 1012.84 1012.72 1012.75 1013.15 1013.29 1013.72 1013.25 1013.14 1013.22 1013.11 1012.75 1012.61 1012.63 1012.81 1013.08 1013.08 1013.04 1012.82 1012.66 1012.46 1012.23 1011.98 1011.60 1011.38
1017.50 1016.94 1016.41 1015.93 1015.45 1014.99 1014.47 1014.32 1014.32 1013.79 1013.86 1013.80 1013.59 1013.28 1013.07 1013.00 1012.88 1012.80 1012.56 1012.40 1012.18 1012.33 1012.89 1013.44 1013.45 1013.49 1013.57 1013.41 1013.35 1013.08 1013.09 1012.78 1013.00 1013.29 1013.26 1013.11 1012.86 1012.59 1012.43 1012.06 1011.79 1011.65 1011.58
1017.11 1016.64 1016.13 1015.76 1015.27 1014.74 1014.44 1014.24 1014.08 1013.93 1014.04 1013.96 1013.65 1013.24 1013.00 1012.84 1012.73 1012.47 1012.29 1012.22 1012.12 1012.71 1012.91 1013.39 1013.85 1014.10 1014.02 1013.78 1013.64 1013.64 1013.54 1013.41 1013.41 1013.35 1013.29 1013.02 1012.78 1012.46 1012.25 1011.92 1011.68 1011.61 1011.46
1016.75 1016.38 1015.98 1015.64 1015.27 1014.84 1014.59 1014.42 1014.44 1014.33 1014.28 1014.02 1013.77 1013.34 1013.19 1013.06 1012.60 1012.47 1012.38 1012.57 1012.83 1013.19 1013.47 1013.83 1014.19 1014.12 1014.26 1014.14 1014.10 1013.99 1013.85 1013.64 1013.39 1013.33 1013.17 1012.98 1012.76 1012.36 1011.97 1011.87 1012.02 1011.84 1011.69
1016.53 1016.32 1016.07 1015.66 1015.35 1015.12 1014.95 1014.82 1014.65 1014.53 1014.45 1014.39 1014.32 1014.09 1013.89 1013.65 1013.24 1013.11 1013.20 1013.16 1013.46 1014.09 1014.16 1014.63 1014.62 1014.66 1014.46 1014.20 1014.26 1013.99 1013.88 1013.59 1013.48 1013.36 1013.25 1013.11 1012.90 1012.68 1012.34 1012.24 1012.24 1012.35 1012.27
1016.78 1016.50 1016.17 1015.81 1015.55 1015.31 1015.24 1015.02 1014.78 1014.84 1014.92 1014.98 1014.88 1014.74 1014.48 1014.37 1014.38 1014.26 1014.27 1014.26 1014.33 1014.80 1014.89 1014.88 1014.73 1014.78 1014.57 1014.29 1013.89 1013.72 1013.49 1013.25 1013.28 1013.35 1013.44 1013.45 1013.26 1013.04 1012.86 1012.67 1012.50 1012.47 1012.52
1017.13 1016.76 1016.41 1015.92 1015.52 1015.42 1015.45 1015.59 1015.58 1015.58 1015.60 1015.64 1015.57 1015.49 1015.46 1015.50 1015.46 1015.34 1015.24 1015.25 1015.25 1015.29 1015.42 1015.43 1015.45 1015.37 1014.86 1014.12 1013.65 1013.25 1012.89 1012.89 1013.32 1013.47 1013.59 1013.74 1013.59 1013.45 1013.10 1012.91 1012.76 1012.69 1012.67
1017.75 1017.40 1017.08 1016.70 1016.48 1016.38 1016.33 1016.37 1016.31 1016.32 1016.34 1016.37 1016.34 1016.35 1016.42 1016.44 1016.39 1016.22 1016.03 1015.91 1015.78 1015.96 1016.00 1015.91 1015.61 1015.13 1014.72 1014.37 1014.00 1013.51 1013.11 1013.04 1013.52 1013.82 1014.04 1013.94 1013.91 1013.76 1013.29 1013.00 1012.88 1012.87 1012.73
1018.56 1018.28 1018.01 1017.72 1017.55 1017.38 1017.29 1017.25 1017.23 1017.20 1017.21 1017.16 1017.43 1017.45 1017.53 1017.37 1017.19 1016.85 1016.64 1016.46 1016.22 1016.05 1015.95 1015.69 1015.48 1015.40 1015.20 1014.93 1014.49 1014.16 1013.87 1013.69 1013.93 1014.10 1014.16 1014.14 1014.12 1014.10 1013.77 1013.39 1013.27 1013.00 1013.00
1019.38 1019.19 1018.99 1018.79 1018.63 1018.52 1018.43 1018.41 1018.28 1018.25 1018.24 1018.33 1018.53 1018.53 1018.38 1018.12 1017.65 1017.28 1016.92 1016.57 1016.41 1016.17 1016.27 1016.20 1016.17 1016.18 1016.07 1015.81 1015.51 1015.18 1014.89 1014.70 1014.79 1014.66 1014.61 1014.72 1014.70 1014.48 1014.14 1013.80 1013.53 1013.30 1013.27
1020.24 1020.10 1020.06 1019.96 1019.83 1019.63 1019.56 1019.52 1019.49 1019.37 1019.20 1019.03 1018.90 1018.77 1018.49 1018.29 1017.85 1017.47 1017.12 1016.96 1016.80 1016.73 1016.88 1017.28 1017.42 1017.28 1017.19 1016.92 1016.67 1016.45 1016.20 1015.90 1015.81 1015.50 1015.41 1015.15 1014.99 1014.78 1014.45 1014.11 1013.78 1013.62 1013.44
1021.19 1021.04 1020.95 1020.81 1020.74 1020.60 1020.55 1020.50 1020.61 1020.02 1019.69 1019.37 1019.06 1018.90 1018.74 1018.40 1017.86 1017.73 1017.68 1017.63 1017.62 1017.54 1018.23 1018.46 1018.47 1018.31 1018.12 1017.84 1017.63 1017.49 1017.41 1017.07 1016.58 1016.29 1016.07 1015.67 1015.30 1015.05 1014.78 1014.54 1014.29 1014.07 1013.85
1021.83 1021.56 1021.58 1021.41 1021.30 1021.25 1021.18 1021.07 1020.90 1020.76 1020.59 1020.00 1019.42 1019.37 1019.01 1018.79 1018.68 1018.61 1018.46 1018.50 1019.10 1019.19 1019.42 1019.49 1019.46 1019.18 1018.99 1018.75 1018.52 1018.30 1017.96 1017.56 1017.18 1016.83 1016.35 1015.94 1015.60 1015.36 1015.20 1014.99 1014.73 1014.53 1014.31
1022.14 1022.04 1021.86 1021.75 1021.63 1021.49 1021.36 1021.26 1021.17 1021.01 1020.93 1020.79 1020.36 1020.13 1019.92 1019.77 1019.75 1019.82 1019.85 1020.33 1020.53 1020.55 1020.46 1020.35 1020.25 1020.03 1019.82 1019.59 1019.32 1018.92 1018.50 1018.11 1017.75 1017.30 1016.80 1016.45 1016.12 1015.81 1015.61 1015.42 1015.18 1014.91 1014.65
1022.22 1022.08 1022.13 1022.11 1022.08 1021.97 1021.93 1021.90 1021.85 1021.87 1021.78 1021.65 1021.53 1021.42 1020.99 1020.75 1021.21 1021.39 1021.33 1021.33 1021.39 1021.43 1021.36 1021.23 1021.11 1020.88 1020.67 1020.41 1020.06 1019.65 1019.12 1018.68 1018.26 1017.80 1017.32 1016.95 1016.63 1016.35 1016.12 1015.88 1015.58 1015.28 1014.96
1022.85 1022.53 1022.34 1022.43 1022.53 1022.52 1022.57 1022.57 1022.58 1022.60 1022.66 1022.66 1022.65 1022.23 1021.93 1022.22 1022.53 1022.53 1022.42 1022.36 1022.28 1022.25 1022.21 1022.06 1021.86 1021.61 1021.35 1021.08 1020.75 1020.38 1020.00 1019.58 1019.09 1018.52 1017.89 1017.44 1017.12 1016.80 1016.53 1016.27 1015.96 1015.63 1015.36
1022.91 1022.80 1022.73 1022.82 1022.80 1022.83 1023.02 1022.95 1023.08 1023.18 1023.25 1023.28 1023.32 1023.11 1022.90 1023.10 1023.23 1023.24 1023.24 1023.21 1023.16 1022.99 1022.85 1022.66 1022.52 1022.32 1022.02 1021.73 1021.39 1021.06 1020.67 1020.20 1019.59 1019.07 1018.47 1017.95 1017.58 1017.25 1016.93 1016.58 1016.27 1015.97 1015.65
1022.89 1022.91 1022.90 1023.01 1023.02 1023.10 1023.24 1023.38 1023.56 1023.58 1023.64 1023.65 1023.59 1023.63 1023.66 1023.80 1023.88 1023.98 1024.02 1023.97 1023.86 1023.70 1023.49 1023.25 1023.08 1022.79 1022.35 1021.99 1021.70 1021.50 1021.17 1020.72 1020.11 1019.52 1018.89 1018.50 1018.11 1017.70 1017.34 1017.01 1016.70 1016.35 1016.00
1022.78 1022.77 1022.99 1023.24 1023.34 1023.66 1023.82 1023.94 1023.93 1023.92 1024.05 1024.16 1024.16 1024.27 1024.37 1024.46 1024.54 1024.61 1024.61 1024.49 1024.45 1024.36 1024.16 1023.96 1023.73 1023.43 1022.97 1022.43 1021.91 1021.47 1021.10 1020.62 1019.99 1019.49 1019.06 1018.95 1018.67 1018.20 1017.80 1017.45 1017.12 1016.73 1016.35
1023.05 1023.10 1023.26 1023.53 1023.75 1023.95 1024.11 1024.28 1024.35 1024.38 1024.46 1024.55 1024.75 1024.84 1024.90 1025.01 1025.15 1025.25 1025.30 1025.23 1025.08 1024.97 1024.82 1024.60 1024.31 1023.93 1023.55 1023.09 1022.53 1021.91 1021.20 1020.53 1020.13 1019.73 1019.47 1019.30 1019.16 1018.73 1018.30 1017.95 1017.60 1017.16 1016.79
1023.07 1023.28 1023.54 1023.70 1023.98 1024.17 1024.44 1024.67 1024.81 1024.78 1024.91 1024.96 1025.03 1025.15 1025.27 1025.43 1025.57 1025.64 1025.67 1025.59 1025.53 1025.47 1025.35 1025.11 1024.81 1024.38 1023.93 1023.54 1023.11 1022.43 1021.79 1021.18 1020.69 1020.19 1019.94 1019.88 1019.71 1019.35 1018.86 1018.45 1018.07 1017.71 1017.30
Wind_Speed
7 7 7 7 7 6 5 5 4 2 2 1 2 4 4 5 3 1 2 3 4 5 4 3 7 5 5 5 4 4 2 2 3 2 2 4 4 4 5 5 6 5 4
4 5 6 7 7 7 7 6 5 6 5 5 6 4 5 5 2 1 2 4 6 5 5 3 5 5 6 6 4 3 3 2 1 1 2 3 3 4 3 4 5 5 5
6 7 7 7 7 7 8 7 7 6 6 6 5 4 2 2 2 2 3 4 4 5 2 2 3 5 4 3 4 3 3 3 3 2 2 3 3 2 2 3 3 4 3
10 9 7 7 7 7 8 10 9 7 6 7 6 5 3 3 4 4 3 3 4 4 2 4 2 3 2 6 3 3 3 4 4 4 3 2 2 2 2 2 3 2 3
13 11 8 7 7 7 8 11 9 8 5 6 3 5 5 3 5 5 4 4 4 2 3 3 2 5 15 8 2 3 4 4 3 3 3 2 2 2 2 2 2 3 2
12 13 11 9 10 8 6 9 6 4 4 2 2 2 7 5 8 8 5 4 4 7 6 4 1 6 9 10 10 9 6 4 4 2 1 2 2 2 2 2 2 2 3
13 11 10 10 7 8 4 4 7 5 4 5 6 5 5 6 7 5 7 4 5 9 8 5 3 4 3 3 7 9 8 8 4 1 1 1 2 2 3 3 1 1 1
11 11 9 8 8 5 4 4 4 2 3 4 6 6 6 3 6 6 5 1 7 5 5 5 6 1 1 3 5 4 5 5 4 2 1 2 2 5 3 3 2 0 1
10 10 9 7 8 4 4 4 3 3 3 4 5 6 4 5 9 5 10 9 11 11 10 8 4 5 4 3 3 3 4 3 3 4 5 6 8 7 5 3 4 2 2
7 7 7 6 5 4 4 4 3 3 3 4 6 7 11 8 15 14 8 8 12 8 8 4 9 5 4 4 4 2 1 3 2 3 5 5 6 6 8 4 2 3 2
6 5 5 6 5 3 4 3 3 5 6 7 8 8 10 10 12 16 14 8 8 7 4 4 3 8 11 8 5 5 5 3 4 2 2 3 3 4 3 3 4 3 2
6 5 5 5 5 6 8 7 8 8 9 9 9 8 7 8 11 11 10 9 6 3 3 3 4 9 11 10 7 9 5 7 2 2 3 3 3 3 3 3 3 3 3
9 9 9 10 9 8 8 7 6 8 7 7 8 8 7 5 5 10 11 12 8 4 2 5 7 8 10 7 11 12 8 4 4 3 1 2 2 3 4 2 2 3 2
8 8 8 8 9 9 7 7 7 7 7 7 8 6 4 5 5 6 6 6 6 5 6 5 6 4 4 5 7 9 7 6 4 3 2 3 3 4 4 3 3 3 2
9 8 9 8 8 8 7 6 6 5 7 5 4 3 4 4 4 7 6 4 4 4 3 4 6 6 7 6 6 8 8 8 7 4 4 3 3 3 3 3 3 2 2
8 8 8 8 8 7 7 7 12 8 8 7 3 3 3 5 10 11 11 8 6 6 6 5 5 5 5 5 5 6 6 8 5 5 4 4 4 4 4 3 4 3 3
7 5 4 5 4 4 4 4 3 6 6 6 8 7 6 6 6 14 14 18 17 14 7 5 4 5 5 6 5 5 4 4 4 4 4 4 3 5 5 4 4 4 4
5 8 4 4 4 4 4 3 3 3 3 4 7 7 13 18 18 16 15 14 9 9 6 6 6 6 6 6 5 4 5 5 5 4 5 6 5 4 5 5 5 4 3
3 3 3 3 3 4 4 4 4 5 5 5 6 10 10 17 18 18 15 7 6 7 6 7 6 6 6 6 5 5 4 4 4 4 5 5 6 4 5 5 5 6 5
3 3 3 3 3 4 4 5 5 5 6 5 5 4 5 10 8 7 7 7 7 6 5 6 6 6 6 6 6 5 5 6 6 6 5 4 5 4 5 5 5 5 4
3 1 4 1 1 2 3 4 5 6 5 5 5 5 8 7 5 5 6 6 5 6 5 5 5 5 5 5 5 5 5 5 5 5 5 4 5 5 5 4 4 4 4
4 2 3 4 3 4 5 5 5 5 5 5 4 6 9 5 6 6 6 5 5 5 4 4 4 5 5 5 5 5 5 5 5 5 5 6 5 5 5 5 5 4 5
4 2 4 2 3 4 5 4 5 5 5 5 5 5 5 5 5 5 5 5 5 5 5 5 5 6 6 5 4 4 4 5 5 4 3 5 5 5 5 5 5 4 4
1 4 5 4 4 5 5 5 5 6 5 5 5 5 5 5 5 6 5 4 5 5 5 5 5 7 7 7 6 5 4 4 4 4 4 4 4 6 5 5 5 6 5
4 5 5 5 5 5 5 5 5 5 5 4 4 4 4 5 5 5 5 4 5 5 6 5 5 7 8 10 11 12 12 12 8 6 3 5 6 8 6 5 6 5 5
5 5 5 5 5 5 5 5 5 5 5 4 4 4 5 5 4 4 4 4 4 5 5 4 7 9 10 8 10 11 12 13 11 10 5 4 5 6 6 7 10 6 7
Wind_Direction
348 347 347 336 331 336 326 300 282 281 289 343 314 271 238 218 215 25 352 331 320 299 316 339 299 302 296 303 288 277 322 356 297 132 33 2 23 6 16 10 11 0 344
303 326 323 323 328 322 311 301 293 275 272 271 280 282 276 250 166 92 325 297 289 301 282 264 284 313 316 294 293 355 46 15 292 293 57 32 30 9 358 6 358 359 4
327 319 301 295 291 294 295 287 286 282 278 277 263 230 194 153 177 224 217 274 294 294 276 40 340 308 302 326 8 1 14 22 4 29 80 41 20 351 352 349 345 345 358
313 300 289 284 284 287 291 289 271 261 261 255 239 233 243 277 274 268 243 270 288 289 87 80 340 314 10 37 19 18 32 51 47 58 53 38 16 344 356 341 336 329 333
308 305 283 275 272 273 283 286 291 262 261 287 7 330 306 314 273 263 258 261 263 141 111 83 236 70 63 58 56 22 53 56 50 45 45 23 20 7 342 306 293 305 297
309 304 307 301 291 280 289 301 306 360 354 319 257 232 277 286 281 254 258 270 257 159 158 120 219 64 68 67 64 79 98 88 71 50 32 24 342 292 302 293 297 346 340
305 298 298 301 295 293 286 6 316 332 318 296 300 292 281 269 272 301 301 278 259 146 151 163 90 51 54 59 52 50 57 82 93 164 71 343 319 289 296 296 354 352 31
301 304 306 312 315 308 324 315 313 358 323 317 313 304 290 309 337 314 309 115 83 92 150 150 106 104 1 44 61 50 40 27 338 358 230 284 277 287 248 249 232 242 303
295 302 312 317 310 324 337 10 351 335 346 10 2 3 20 360 340 95 94 90 83 68 63 68 113 228 166 99 99 76 48 14 332 322 308 323 346 9 44 63 14 5 319
303 321 323 319 3 7 19 17 354 18 44 45 41 33 45 47 51 56 68 89 83 78 64 68 69 50 44 226 238 180 240 259 281 327 355 356 3 357 31 53 67 43 344
1 347 336 339 336 348 338 352 9 58 61 60 60 50 56 57 59 58 51 68 79 68 72 90 75 9 336 320 295 243 224 206 275 248 351 333 342 357 356 10 39 63 38
359 358 347 342 8 43 69 60 62 68 69 61 61 56 47 48 48 54 51 45 34 124 117 15 339 331 305 323 354 335 355 203 199 150 37 346 4 349 332 330 31 75 71
33 37 34 40 47 52 62 68 70 72 73 70 69 70 76 33 19 21 21 12 34 38 323 275 296 341 354 360 15 19 25 45 134 107 71 13 18 320 324 342 76 91 69
40 39 38 46 45 46 51 58 67 69 73 78 95 97 32 9 8 358 359 350 343 353 344 333 346 18 23 21 21 15 24 33 91 114 89 43 14 11 344 16 17 6 11
41 38 39 41 45 52 49 47 69 78 65 70 42 52 34 347 302 292 274 309 328 312 0 36 45 34 32 21 24 24 25 38 43 21 41 36 6 14 360 356 357 337 35
50 49 48 51 52 44 47 62 41 46 56 59 47 329 311 272 318 328 336 344 37 58 54 49 34 32 33 21 28 29 27 30 20 29 19 17 22 3 353 355 3 355 359
69 57 37 43 46 48 49 66 60 341 358 350 349 344 356 270 20 50 50 53 42 52 52 34 31 29 22 27 29 34 19 5 2 22 21 8 11 14 4 6 359 355 20
31 36 37 22 35 56 61 65 68 51 18 341 341 21 36 48 44 42 55 52 39 35 44 42 37 29 26 29 16 25 14 9 8 1 10 10 3 12 11 2 359 352 13
25 11 11 38 51 57 54 45 39 39 39 29 27 36 26 49 51 47 49 57 55 40 32 40 27 25 25 24 14 4 7 358 357 351 0 10 10 10 10 3 356 350 348
22 103 97 79 42 24 24 29 39 47 47 47 52 28 38 53 47 45 45 52 51 42 34 41 28 29 22 16 9 2 358 1 355 353 348 356 7 9 2 357 356 353 348
13 211 159 130 36 43 59 62 69 77 64 49 38 32 59 72 53 47 48 41 39 41 35 32 17 19 13 13 6 1 1 349 350 342 342 356 15 6 2 358 355 357 354
17 115 110 106 107 75 67 66 68 77 68 68 45 51 59 59 61 60 53 43 30 38 33 37 28 17 5 3 354 359 354 352 346 350 349 12 2 7 358 2 357 353 357
4 127 103 94 89 81 63 74 83 82 80 74 72 68 64 61 63 60 60 49 41 38 26 30 23 9 357 351 354 350 351 334 309 306 13 12 11 1 357 358 355 351 354
91 123 103 91 95 93 97 91 87 84 86 80 79 74 75 72 70 67 57 51 45 33 27 23 15 12 4 2 354 348 336 325 326 353 68 44 12 4 7 3 357 355 352
131 112 108 110 102 107 96 92 89 87 87 87 78 75 78 79 71 65 57 48 46 41 27 13 6 2 6 4 2 359 359 6 14 359 29 50 22 6 10 9 2 350 355
100 101 106 103 101 101 101 99 97 100 98 93 98 103 104 99 98 92 79 70 60 46 32 16 13 13 10 11 2 4 10 8 10 13 30 47 23 13 10 10 12 11 8